User: anonymous   Login
Location: Unspecified
(0.0000°N, 0.0000°E)
Time: 01:06:51
(UTC+00:00)
Language:

USA 281 - Orbit

View from above orbital plane
View from above orbital plane
View from above satellite
View from above satellite

Ground track
Ground track

The orbit data is extracted from the following two-line orbital elements,

1 43145U 18005A   18170.92830036 0.00000000  00000-0  00000-0 0    02
2 43145 106.0153  27.6217 0002001 138.4577 221.5422 13.48015048    00
Epoch (UTC): 19 June 2018 22:16:45
Eccentricity: 0.0002001
inclination: 106.0153°
perigee height: 1078 km
apogee height: 1081 km
right ascension of ascending node: 27.6217°
argument of perigee: 138.4577°
revolutions per day: 13.48015048
mean anomaly at epoch: 221.5422°
orbit number at epoch: 0

The dashed part of the orbit path shows where the satellite is in the earth's shadow,  

DLR